Location: Norderney
(53.7000°N, 7.1500°E)
Time: 01:06:42
(UTC+02:00)

ACS3 Solar Sail - Pass Details

Date: 19 August 2024
Orbit: 979 x 1031 km, 97.4° (Epoch: 10 September)

Event Time Altitude Azimuth Distance (km) Brightness Sun altitude
Exits shadow 23:27:06 - 208° (SSW) 3,673 4.5 -18.5°
Reaches altitude 10° 23:29:52 10° 221° (SW) 2,810 4.0 -18.8°
Maximum altitude 23:34:57 25° 274° (W) 1,960 3.7 -19.2°
Drops below altitude 10° 23:40:08 10° 328° (NNW) 2,855 5.5 -19.5°
Sets 23:43:13 0° 341° (NNW) 3,818 6.4 -19.8°
